TimeEDT,TemperatureF,Dew PointF,Humidity,Sea Level PressureIn,VisibilityMPH,Wind Direction,Wind SpeedMPH,Gust SpeedMPH,PrecipitationIn,Events,Conditions,WindDirDegrees,DateUTC
12:16 AM,55.4,53.6,94,30.01,10.0,SSE,5.8,-,N/A,,Clear,160,2013-09-21 04:16:00
12:37 AM,55.4,53.6,94,30.01,10.0,SSE,4.6,-,N/A,,Clear,150,2013-09-21 04:37:00
12:56 AM,55.4,51.8,88,30.01,10.0,Calm,Calm,-,N/A,,Clear,0,2013-09-21 04:56:00
1:15 AM,55.4,53.6,94,30.00,1.8,Calm,Calm,-,N/A,,Mist,0,2013-09-21 05:15:00
1:35 AM,55.4,53.6,94,30.00,10.0,Calm,Calm,-,N/A,,Clear,0,2013-09-21 05:35:00
1:56 AM,55.4,53.6,94,29.99,10.0,Calm,Calm,-,N/A,,Clear,0,2013-09-21 05:56:00
2:16 AM,55.4,53.6,94,29.98,10.0,Calm,Calm,-,N/A,,Clear,0,2013-09-21 06:16:00
2:35 AM,55.4,53.6,94,29.98,10.0,South,3.5,-,N/A,,Clear,170,2013-09-21 06:35:00
2:56 AM,55.4,53.6,94,29.97,10.0,South,4.6,-,N/A,,Clear,170,2013-09-21 06:56:00
3:15 AM,55.4,53.6,94,29.98,10.0,Calm,Calm,-,N/A,,Clear,0,2013-09-21 07:15:00
3:36 AM,55.4,51.8,88,29.97,3.0,Calm,Calm,-,N/A,,Clear,0,2013-09-21 07:36:00
3:58 AM,55.4,53.6,94,29.97,10.0,SSW,3.5,-,N/A,,Unknown,210,2013-09-21 07:58:00
4:15 AM,55.4,53.6,94,29.97,10.0,South,4.6,-,N/A,,Clear,190,2013-09-21 08:15:00
4:36 AM,55.4,53.6,94,29.97,10.0,SSW,3.5,-,N/A,,Clear,200,2013-09-21 08:36:00
4:55 AM,55.4,53.6,94,29.97,10.0,Calm,Calm,-,N/A,,Clear,0,2013-09-21 08:55:00
5:16 AM,55.4,53.6,94,29.97,10.0,South,3.5,-,N/A,,Clear,190,2013-09-21 09:16:00
5:37 AM,55.4,53.6,94,29.97,10.0,SSW,3.5,-,N/A,,Clear,210,2013-09-21 09:37:00
5:56 AM,55.4,53.6,94,29.96,10.0,Calm,Calm,-,N/A,,Clear,0,2013-09-21 09:56:00
6:18 AM,55.4,53.6,94,29.96,10.0,Calm,Calm,-,N/A,,Clear,0,2013-09-21 10:18:00
6:37 AM,55.4,53.6,94,29.96,10.0,Calm,Calm,-,N/A,,Clear,0,2013-09-21 10:37:00
6:56 AM,55.4,53.6,94,29.96,10.0,SSE,3.5,-,N/A,,Clear,150,2013-09-21 10:56:00
7:16 AM,55.4,53.6,94,29.95,10.0,Calm,Calm,-,N/A,,Clear,0,2013-09-21 11:16:00
7:35 AM,57.2,53.6,88,29.96,10.0,Calm,Calm,-,N/A,,Clear,0,2013-09-21 11:35:00
7:55 AM,59.0,55.4,88,29.94,10.0,Calm,Calm,-,N/A,,Clear,0,2013-09-21 11:55:00
8:15 AM,62.6,60.8,94,29.94,10.0,Calm,Calm,-,N/A,,Clear,0,2013-09-21 12:15:00
8:35 AM,68.0,64.4,88,29.94,10.0,SE,3.5,-,N/A,,Clear,130,2013-09-21 12:35:00
8:55 AM,69.8,64.4,83,29.94,10.0,SE,3.5,-,N/A,,Clear,130,2013-09-21 12:55:00
9:17 AM,71.6,64.4,78,29.94,10.0,Calm,Calm,-,N/A,,Clear,0,2013-09-21 13:17:00
9:36 AM,73.4,64.4,73,29.93,10.0,SE,5.8,-,N/A,,Clear,130,2013-09-21 13:36:00
9:55 AM,75.2,62.6,65,29.93,10.0,ESE,3.5,-,N/A,,Clear,120,2013-09-21 13:55:00
10:15 AM,75.2,60.8,61,29.93,10.0,SE,6.9,-,N/A,,Clear,130,2013-09-21 14:15:00
10:36 AM,77.0,60.8,57,29.92,10.0,SE,6.9,-,N/A,,Clear,130,2013-09-21 14:36:00
10:55 AM,77.0,57.2,50,29.91,10.0,South,9.2,-,N/A,,Clear,170,2013-09-21 14:55:00
11:15 AM,78.8,57.2,47,29.91,10.0,South,5.8,-,N/A,,Clear,170,2013-09-21 15:15:00
11:36 AM,78.8,57.2,47,29.90,10.0,SSE,9.2,-,N/A,,Clear,150,2013-09-21 15:36:00
11:55 AM,78.8,59.0,51,29.89,10.0,SSE,11.5,-,N/A,,Clear,160,2013-09-21 15:55:00
12:17 PM,78.8,62.6,57,29.88,10.0,South,11.5,-,N/A,,Clear,180,2013-09-21 16:17:00
12:35 PM,78.8,64.4,61,29.88,10.0,SSE,9.2,17.3,N/A,,Scattered Clouds,160,2013-09-21 16:35:00
12:56 PM,78.8,64.4,61,29.86,10.0,South,11.5,16.1,N/A,,Scattered Clouds,180,2013-09-21 16:56:00
1:15 PM,78.8,64.4,61,29.86,10.0,South,12.7,20.7,N/A,,Mostly Cloudy,190,2013-09-21 17:15:00
1:35 PM,78.8,66.2,65,29.85,10.0,SSE,9.2,16.1,N/A,,Mostly Cloudy,160,2013-09-21 17:35:00
1:55 PM,80.6,64.4,58,29.84,10.0,South,10.4,19.6,N/A,,Scattered Clouds,180,2013-09-21 17:55:00
2:15 PM,78.8,66.2,65,29.83,10.0,SSE,12.7,19.6,N/A,,Mostly Cloudy,160,2013-09-21 18:15:00
2:36 PM,78.8,66.2,65,29.82,10.0,South,5.8,17.3,N/A,,Mostly Cloudy,170,2013-09-21 18:36:00
2:56 PM,80.6,66.2,61,29.81,10.0,South,10.4,-,N/A,,Scattered Clouds,180,2013-09-21 18:56:00
3:16 PM,80.6,66.2,61,29.80,10.0,South,9.2,17.3,N/A,,Scattered Clouds,170,2013-09-21 19:16:00
3:37 PM,80.6,66.2,61,29.80,10.0,South,11.5,20.7,N/A,,Mostly Cloudy,180,2013-09-21 19:37:00
3:55 PM,80.6,66.2,61,29.79,10.0,South,11.5,17.3,N/A,,Scattered Clouds,170,2013-09-21 19:55:00
4:16 PM,78.8,66.2,65,29.79,10.0,SSW,10.4,17.3,N/A,,Mostly Cloudy,200,2013-09-21 20:16:00
4:35 PM,77.0,66.2,69,29.78,10.0,South,11.5,20.7,N/A,,Mostly Cloudy,180,2013-09-21 20:35:00
4:55 PM,77.0,66.2,69,29.78,10.0,South,10.4,16.1,N/A,,Scattered Clouds,180,2013-09-21 20:55:00
5:17 PM,75.2,66.2,73,29.78,10.0,South,8.1,-,N/A,,Scattered Clouds,180,2013-09-21 21:17:00
5:35 PM,75.2,66.2,73,29.78,10.0,South,11.5,16.1,N/A,,Mostly Cloudy,180,2013-09-21 21:35:00
5:55 PM,75.2,66.2,73,29.78,10.0,South,12.7,18.4,N/A,,Overcast,190,2013-09-21 21:55:00
6:15 PM,73.4,68.0,83,29.77,10.0,SSE,8.1,-,N/A,,Mostly Cloudy,160,2013-09-21 22:15:00
6:37 PM,73.4,68.0,83,29.77,10.0,SSE,9.2,-,N/A,,Mostly Cloudy,160,2013-09-21 22:37:00
6:56 PM,73.4,68.0,83,29.76,10.0,South,8.1,-,N/A,,Scattered Clouds,170,2013-09-21 22:56:00
7:15 PM,73.4,68.0,83,29.75,10.0,South,8.1,-,N/A,,Mostly Cloudy,180,2013-09-21 23:15:00
7:36 PM,73.4,66.2,78,29.76,10.0,South,6.9,-,N/A,,Overcast,180,2013-09-21 23:36:00
7:55 PM,73.4,66.2,78,29.75,10.0,South,8.1,-,N/A,Rain,Rain,170,2013-09-21 23:55:00
8:15 PM,73.4,66.2,78,29.75,10.0,South,6.9,-,N/A,,Mostly Cloudy,170,2013-09-22 00:15:00
8:36 PM,73.4,66.2,78,29.75,10.0,South,4.6,-,N/A,,Scattered Clouds,170,2013-09-22 00:36:00
8:56 PM,73.4,66.2,78,29.75,10.0,South,5.8,-,N/A,,Clear,180,2013-09-22 00:56:00
9:16 PM,73.4,66.2,78,29.75,10.0,South,5.8,-,N/A,,Scattered Clouds,180,2013-09-22 01:16:00
9:36 PM,73.4,68.0,83,29.75,10.0,South,5.8,-,N/A,,Light Drizzle,180,2013-09-22 01:36:00
9:55 PM,73.4,68.0,83,29.75,10.0,South,4.6,-,N/A,,Overcast,190,2013-09-22 01:55:00
10:16 PM,73.4,69.8,88,29.75,10.0,South,4.6,-,N/A,,Light Drizzle,190,2013-09-22 02:16:00
10:36 PM,73.4,69.8,88,29.75,4.0,WSW,5.8,-,0.02,Rain,Rain,250,2013-09-22 02:36:00
10:57 PM,73.4,69.8,88,29.75,10.0,SSW,9.2,-,N/A,Rain,Light Rain,210,2013-09-22 02:57:00
11:16 PM,73.4,69.8,88,29.75,10.0,SW,3.5,-,0.02,Rain,Light Rain,230,2013-09-22 03:16:00
11:37 PM,71.6,69.8,94,29.75,7.0,SW,8.1,-,0.03,,Drizzle,230,2013-09-22 03:37:00
11:55 PM,69.8,66.2,88,29.76,5.0,WSW,8.1,19.6,0.18,Rain,Heavy Rain,250,2013-09-22 03:55:00